Location: Koslow
(50.3020°N, 18.5663°E)
Time: 07:29:41
(UTC+00:00)

STARLINK-1357 - Pass Details

Date: 06 October 2020
Orbit: 548 x 551 km, 53.0° (Epoch: 31 October)

Event Time Altitude Azimuth Distance (km) Brightness Sun altitude
Exits shadow 03:52:06 13° 290° (WNW) 1,652 5.5 -10.7°
Maximum altitude 03:55:49 89° 14° (NNE) 557 3.6 -10.1°
Drops below altitude 10° 03:59:58 10° 111° (ESE) 1,827 7.5 -9.5°
Sets 04:02:12 0° 112° (ESE) 2,720 8.5 -9.1°
